Date String (YYYY-MM-DD hh:mm:ss) UTC,Instrument flags,absolute air pressure of the measurement (hPa),sample flow rate (lpm),inlet stack bypass flow (lpm),air temperature of the measurement (°C),ambient temperature measured by the external sensor (°C),aerosol sample conditioner tube jacket temperature (°C),OPC LED temperature (°C),internal box temperature (°C),relative humidity of the measurement (%),span deviation,mass concentration of particles derived from Lorenz-Mie calculation of OPC scattering (μg/m³),mass concentration of particles derived from Lorenz-Mie calculation of OPC scattering (μg/m³),mass concentration of particles derived from Lorenz-Mie calculation of OPC scattering (μg/m³)
DateTimeUTC,F1_M11,P_M11,Q1_M11,Q2_M11,T1_M11,T2_M11,T3_M11,T4_M11,T5_M11,U1_M11,ZSPAN_M11,X0_M11,X2_M11,X1_M11
2024-04-08 16:00:00,SystemResetWarning,0825.9,5.00,000.00,018.8,018.2,000.0,027.2,020.5,013.7,0000.0,0009.54,0003.45,0002.40
2024-04-08 16:01:00,SystemResetWarning,0825.8,5.00,000.00,018.8,018.2,000.0,027.2,020.5,013.1,0000.0,0009.76,0003.45,0002.42
2024-04-08 16:02:00,SystemResetWarning,0825.8,5.00,000.00,018.8,018.2,000.0,027.2,020.5,012.9,0000.0,0009.03,0003.48,0002.44
2024-04-08 16:03:00,SystemResetWarning,0825.9,4.99,000.00,018.8,018.2,000.0,027.2,020.5,013.9,0000.0,0008.86,0003.48,0002.46
2024-04-08 16:04:00,SystemResetWarning,0825.9,4.99,000.00,018.8,018.2,000.0,027.2,020.5,013.3,0000.0,0008.70,0003.51,0002.47
2024-04-08 16:05:00,SystemResetWarning,0825.9,4.99,000.00,018.8,018.2,000.0,027.2,020.5,013.1,0000.0,0008.32,0003.43,0002.47
2024-04-08 16:06:00,SystemResetWarning,0825.9,5.00,000.00,018.8,018.2,000.0,027.2,020.5,014.1,0000.0,0008.07,0003.38,0002.47
2024-04-08 16:07:00,SystemResetWarning,0826.0,5.01,000.00,018.8,018.2,000.0,027.2,020.5,014.3,0000.0,0008.39,0003.44,0002.48
2024-04-08 16:08:00,SystemResetWarning,0826.0,5.01,000.00,018.8,018.3,000.0,027.2,020.5,013.8,0000.0,0008.45,0003.48,0002.48
2024-04-08 16:09:00,SystemResetWarning,0826.0,5.00,000.00,018.8,018.3,000.0,027.2,020.5,013.5,0000.0,0008.61,0003.49,0002.44
2024-04-08 16:10:00,SystemResetWarning,0825.9,5.00,000.00,018.8,018.3,000.0,027.2,020.5,012.4,0000.0,0008.97,0003.51,0002.43
2024-04-08 16:11:00,SystemResetWarning,0825.9,5.00,000.00,018.8,018.3,000.0,027.2,020.5,011.9,0000.0,0009.32,0003.47,0002.40
2024-04-08 16:12:00,SystemResetWarning,0825.9,5.00,000.00,018.8,018.3,000.0,027.2,020.5,011.8,0000.0,0008.86,0003.45,0002.38
2024-04-08 16:13:00,SystemResetWarning,0825.9,4.99,000.00,018.8,018.3,000.0,027.2,020.5,013.0,0000.0,0009.08,0003.41,0002.35
2024-04-08 16:14:00,SystemResetWarning,0825.9,4.99,000.00,018.8,018.3,000.0,027.2,020.6,012.9,0000.0,0009.50,0003.44,0002.33
2024-04-08 16:15:00,SystemResetWarning,0825.9,5.00,000.00,018.9,018.3,000.0,027.2,020.5,012.3,0000.0,0009.49,0003.43,0002.30
2024-04-08 16:16:00,SystemResetWarning,0825.9,5.01,000.00,018.9,018.3,000.0,027.2,020.5,012.4,0000.0,0009.56,0003.43,0002.27
2024-04-08 16:17:00,SystemResetWarning,0825.9,5.00,000.00,018.9,018.3,000.0,027.3,020.5,012.2,0000.0,0010.01,0003.46,0002.25
2024-04-08 16:18:00,SystemResetWarning,0825.9,5.00,000.00,018.9,018.3,000.0,027.3,020.5,011.9,0000.0,0010.34,0003.46,0002.24
2024-04-08 16:19:00,SystemResetWarning,0825.9,4.99,000.00,018.9,018.3,000.0,027.3,020.5,012.0,0000.0,0010.53,0003.41,0002.21
2024-04-08 16:20:00,SystemResetWarning,0825.9,4.99,000.00,018.9,018.3,000.0,027.3,020.5,012.9,0000.0,0010.66,0003.39,0002.20
2024-04-08 16:21:00,SystemResetWarning,0825.9,4.99,000.00,018.9,018.3,000.0,027.3,020.6,013.4,0000.0,0010.86,0003.39,0002.19
2024-04-08 16:22:00,SystemResetWarning,0825.9,5.00,000.00,018.9,018.3,000.0,027.3,020.6,014.3,0000.0,0010.60,0003.40,0002.18
2024-04-08 16:23:00,SystemResetWarning,0825.9,5.01,000.00,018.9,018.3,000.0,027.3,020.6,014.3,0000.0,0011.14,0003.40,0002.18
2024-04-08 16:24:00,SystemResetWarning,0825.9,5.01,000.00,018.9,018.3,000.0,027.3,020.6,014.3,0000.0,0011.22,0003.43,0002.18
2024-04-08 16:25:00,SystemResetWarning,0825.9,5.01,000.00,018.9,018.4,000.0,027.3,020.6,012.6,0000.0,0011.22,0003.40,0002.17
2024-04-08 16:26:00,SystemResetWarning,0825.8,4.99,000.00,018.9,018.4,000.0,027.3,020.6,013.3,0000.0,0011.92,0003.35,0002.15
2024-04-08 16:27:00,SystemResetWarning,0825.9,4.99,000.00,018.9,018.4,000.0,027.3,020.6,013.6,0000.0,0011.44,0003.33,0002.14
2024-04-08 16:28:00,SystemResetWarning,0825.9,5.02,000.00,018.9,018.4,000.0,027.3,020.6,013.5,0000.0,0011.08,0003.34,0002.15
2024-04-08 16:29:00,SystemResetWarning,0825.9,5.01,000.00,018.9,018.4,000.0,027.3,020.6,013.7,0000.0,0011.07,0003.33,0002.16
2024-04-08 16:30:00,SystemResetWarning,0825.9,4.99,000.00,018.9,018.4,000.0,027.3,020.7,013.6,0000.0,0011.33,0003.36,0002.19
2024-04-08 16:31:00,SystemResetWarning,0825.9,4.99,000.00,018.9,018.4,000.0,027.3,020.6,013.5,0000.0,0012.01,0003.35,0002.21
2024-04-08 16:32:00,SystemResetWarning,0825.9,5.00,000.00,019.0,018.4,000.0,027.3,020.7,013.2,0000.0,0012.21,0003.38,0002.22
2024-04-08 16:33:00,SystemResetWarning,0825.9,5.00,000.00,019.0,018.4,000.0,027.3,020.7,013.3,0000.0,0012.09,0003.40,0002.25
2024-04-08 16:34:00,SystemResetWarning,0826.0,5.00,000.00,019.0,018.5,000.0,027.3,020.7,013.1,0000.0,0012.35,0003.39,0002.26
2024-04-08 16:35:00,SystemResetWarning,0825.9,5.00,000.00,019.0,018.5,000.0,027.3,020.7,013.5,0000.0,0012.13,0003.41,0002.28
2024-04-08 16:36:00,SystemResetWarning,0826.0,5.00,000.00,019.0,018.5,000.0,027.4,020.7,013.1,0000.0,0011.81,0003.41,0002.30
2024-04-08 16:37:00,SystemResetWarning,0826.0,5.00,000.00,019.0,018.5,000.0,027.4,020.7,013.2,0000.0,0011.53,0003.42,0002.34
2024-04-08 16:38:00,SystemResetWarning,0826.1,5.00,000.00,019.0,018.5,000.0,027.4,020.7,013.2,0000.0,0011.82,0003.45,0002.37
2024-04-08 16:39:00,SystemResetWarning,0826.1,5.00,000.00,019.0,018.5,000.0,027.4,020.7,012.8,0000.0,0012.27,0003.45,0002.39
2024-04-08 16:40:00,SystemResetWarning,0825.9,5.00,000.00,019.0,018.5,000.0,027.4,020.7,012.8,0000.0,0011.92,0003.42,0002.40
2024-04-08 16:41:00,SystemResetWarning,0825.9,5.00,000.00,019.0,018.5,000.0,027.4,020.7,012.9,0000.0,0011.44,0003.43,0002.40
2024-04-08 16:42:00,SystemResetWarning,0825.9,5.00,000.00,019.0,018.5,000.0,027.4,020.7,012.7,0000.0,0010.64,0003.42,0002.39
2024-04-08 16:43:00,SystemResetWarning,0826.0,5.00,000.00,019.0,018.5,000.0,027.4,020.8,012.4,0000.0,0010.22,0003.40,0002.40
2024-04-08 16:44:00,SystemResetWarning,0826.0,5.00,000.00,019.1,018.5,000.0,027.4,020.8,012.5,0000.0,0010.26,0003.42,0002.39
2024-04-08 16:45:00,SystemResetWarning,0826.0,5.00,000.00,019.1,018.6,000.0,027.4,020.8,012.5,0000.0,0009.70,0003.44,0002.39
2024-04-08 16:46:00,SystemResetWarning,0826.0,5.00,000.00,019.1,018.6,000.0,027.4,020.8,012.6,0000.0,0009.40,0003.44,0002.39
2024-04-08 16:47:00,SystemResetWarning,0826.0,5.00,000.00,019.1,018.6,000.0,027.5,020.8,012.3,0000.0,0009.96,0003.41,0002.39
2024-04-08 16:48:00,SystemResetWarning,0826.0,4.99,000.00,019.1,018.6,000.0,027.5,020.8,012.4,0000.0,0010.01,0003.44,0002.38
2024-04-08 16:49:00,SystemResetWarning,0825.9,4.99,000.00,019.1,018.6,000.0,027.5,020.8,012.6,0000.0,0009.61,0003.42,0002.37
2024-04-08 16:50:00,SystemResetWarning,0825.9,5.00,000.00,019.1,018.6,000.0,027.5,020.8,012.1,0000.0,0010.07,0003.41,0002.35
2024-04-08 16:51:00,SystemResetWarning,0825.9,5.00,000.00,019.1,018.6,000.0,027.5,020.8,012.4,0000.0,0009.41,0003.40,0002.33
2024-04-08 16:52:00,SystemResetWarning,0825.9,5.00,000.00,019.1,018.6,000.0,027.5,020.9,012.8,0000.0,0010.09,0003.37,0002.31
2024-04-08 16:53:00,SystemResetWarning,0825.9,5.01,000.00,019.2,018.7,000.0,027.5,020.9,012.5,0000.0,0010.03,0003.36,0002.32
2024-04-08 16:54:00,SystemResetWarning,0825.9,5.00,000.00,019.2,018.7,000.0,027.5,020.9,012.4,0000.0,0009.84,0003.38,0002.32
2024-04-08 16:55:00,SystemResetWarning,0825.9,5.00,000.00,019.2,018.7,000.0,027.5,020.9,012.4,0000.0,0009.68,0003.38,0002.32
2024-04-08 16:56:00,SystemResetWarning,0825.9,5.00,000.00,019.2,018.7,000.0,027.5,020.9,012.9,0000.0,0009.60,0003.36,0002.30
2024-04-08 16:57:00,SystemResetWarning,0825.9,5.00,000.00,019.2,018.7,000.0,027.5,021.0,012.8,0000.0,0009.48,0003.37,0002.29
2024-04-08 16:58:00,SystemResetWarning,0826.0,4.99,000.00,019.2,018.7,000.0,027.6,021.0,012.3,0000.0,0009.10,0003.37,0002.27
2024-04-08 16:59:00,SystemResetWarning,0826.0,5.00,000.00,019.2,018.8,000.0,027.6,021.0,012.4,0000.0,0009.07,0003.38,0002.25
